Menominee, MI

8:15 AM CDT on April 28, 2017 (GMT -0500)
Menominee-Marinette Twin County

Weather History for KMNM - February, 2014

Change the Weather History Date:

Wednesday, February 26, 2014

  Actual Average Record
Temperature  
Mean Temperature 2 °F -  
Max Temperature 10 °F 34 °F 49 °F (1976)
Min Temperature -7 °F 13 °F -16 °F (1963)
Degree Days  
Heating Degree Days 64    
Moisture  
Dew Point -9 °F    
Average Humidity 64    
Maximum Humidity 85    
Minimum Humidity 37    
Precipitation  
Precipitation 0.00 in - - ()
Sea Level Pressure  
Sea Level Pressure 29.77 in    
Wind  
Wind Speed 7 mph (West)    
Max Wind Speed 21 mph    
Max Gust Speed 33 mph    
Visibility 10 miles    
Events      
Averages and records for this station are not official NWS values.
T = Trace of Precipitation, MM = Missing Value Source: NWS Daily Summary

Daily Weather History Graph

Daily Weather History Graph

Search for Another Location

Airport or City:

Trip Planner

Search our weather history database for the weather conditions in past years. The results will help you decide how hot, cold, wet, or windy it might be!

Date:

Astronomy

Feb. 26, 2014 Rise Set
Actual Time 6:33 AM CST 5:33 PM CST
Civil Twilight 6:04 AM CST 6:03 PM CST
Nautical Twilight 5:30 AM CST 6:37 PM CST
Astronomical Twilight 4:56 AM CST 7:11 PM CST
Moon 4:25 AM CST (2/26) 2:42 PM CST (2/26)
Length of Visible Light 11h 59m
Length of Day
11h 00m
Waning Crescent, 10% of the Moon is Illuminated
Feb 26
Waning Crescent
Mar 1
New
Mar 8
First Quarter
Mar 16
Full
Mar 23
Last Quarter

Hourly Weather History & Observations

Time (CST) Temp. Windchill Dew Point Humidity Pressure Visibility Wind Dir Wind Speed Gust Speed Precip Events Conditions
12:15 AM -0.4 °F -8.3 °F -11.2 °F 60% 30.09 in 10.0 mi West 3.5 mph - N/A   Clear
12:35 AM -2.2 °F -10.4 °F -11.2 °F 66% 30.09 in 10.0 mi West 3.5 mph - N/A   Clear
12:55 AM -2.2 °F -10.4 °F -9.4 °F 71% 30.09 in 10.0 mi West 3.5 mph - N/A   Clear
1:15 AM -2.2 °F -10.4 °F -11.2 °F 66% 30.09 in 10.0 mi West 3.5 mph - N/A   Clear
1:35 AM -4.0 °F -14.6 °F -9.4 °F 78% 30.09 in 10.0 mi West 4.6 mph - N/A   Clear
1:55 AM -4.0 °F -12.4 °F -9.4 °F 78% 30.09 in 10.0 mi West 3.5 mph - N/A   Clear
2:15 AM -4.0 °F -12.4 °F -9.4 °F 78% 30.08 in 10.0 mi West 3.5 mph - N/A   Clear
2:35 AM -4.0 °F -16.3 °F -11.2 °F 71% 30.09 in 10.0 mi West 5.8 mph - N/A   Clear
2:55 AM -5.8 °F -18.4 °F -9.4 °F 84% 30.08 in 10.0 mi West 5.8 mph - N/A   Clear
3:15 AM -4.0 °F -14.6 °F -9.4 °F 78% 30.08 in 10.0 mi West 4.6 mph - N/A   Clear
3:35 AM -5.8 °F -16.7 °F -11.2 °F 77% 30.08 in 10.0 mi West 4.6 mph - N/A   Clear
3:55 AM -5.8 °F -16.7 °F -11.2 °F 77% 30.07 in 10.0 mi West 4.6 mph - N/A   Clear
4:15 AM -5.8 °F -14.5 °F -11.2 °F 77% 30.07 in 10.0 mi West 3.5 mph - N/A   Clear
4:35 AM -5.8 °F -16.7 °F -11.2 °F 77% 30.06 in 10.0 mi West 4.6 mph - N/A   Clear
4:55 AM -5.8 °F -16.7 °F -11.2 °F 77% 30.06 in 10.0 mi West 4.6 mph - N/A   Clear
5:15 AM -5.8 °F -16.7 °F -11.2 °F 77% 30.05 in 10.0 mi West 4.6 mph - N/A   Clear
5:35 AM -5.8 °F -16.7 °F -13.0 °F 71% 30.05 in 10.0 mi WSW 4.6 mph - N/A   Clear
5:55 AM -7.6 °F -18.8 °F -13.0 °F 77% 30.05 in 10.0 mi West 4.6 mph - N/A   Clear
6:15 AM -7.6 °F -22.1 °F -13.0 °F 77% 30.03 in 10.0 mi WSW 6.9 mph - N/A   Clear
6:35 AM -7.6 °F -20.6 °F -11.2 °F 84% 30.02 in 10.0 mi WSW 5.8 mph - N/A   Clear
6:55 AM -7.6 °F -20.6 °F -13.0 °F 77% 30.01 in 10.0 mi WSW 5.8 mph - N/A   Clear
7:15 AM -7.6 °F -18.8 °F -13.0 °F 77% 30.01 in 10.0 mi WSW 4.6 mph - N/A   Partly Cloudy
7:35 AM -7.6 °F -23.4 °F -11.2 °F 84% 30.00 in 10.0 mi WSW 8.1 mph - N/A   Clear
7:55 AM -5.8 °F -22.4 °F -11.2 °F 77% 29.99 in 10.0 mi West 9.2 mph - N/A   Partly Cloudy
8:15 AM -5.8 °F -22.4 °F -11.2 °F 77% 29.98 in 10.0 mi West 9.2 mph 17.3 mph N/A   Partly Cloudy
8:35 AM -5.8 °F -23.4 °F -14.8 °F 65% 29.97 in 10.0 mi WSW 10.4 mph - N/A   Partly Cloudy
8:55 AM -5.8 °F -23.4 °F -11.2 °F 77% 29.95 in 10.0 mi WSW 10.4 mph 16.1 mph N/A   Partly Cloudy
9:15 AM -4.0 °F -23.7 °F -11.2 °F 71% 29.93 in 10.0 mi West 13.8 mph 18.4 mph N/A   Scattered Clouds
9:35 AM -2.2 °F -19.9 °F -14.8 °F 55% 29.91 in 10.0 mi WSW 11.5 mph 18.4 mph N/A   Mostly Cloudy
9:55 AM -2.2 °F -19.9 °F -13.0 °F 60% 29.89 in 10.0 mi WSW 11.5 mph 19.6 mph N/A   Mostly Cloudy
10:15 AM -2.2 °F -21.5 °F -11.2 °F 66% 29.88 in 10.0 mi SW 13.8 mph 18.4 mph N/A   Scattered Clouds
10:35 AM -0.4 °F -18.4 °F -11.2 °F 60% 29.86 in 10.0 mi WSW 12.7 mph 18.4 mph N/A   Partly Cloudy
10:55 AM 1.4 °F -18.2 °F -11.2 °F 56% 29.84 in 10.0 mi SW 16.1 mph 19.6 mph N/A   Clear
11:15 AM 1.4 °F -17.6 °F -11.2 °F 56% 29.82 in 10.0 mi WSW 15.0 mph 23.0 mph N/A   Clear
11:35 AM 1.4 °F -16.1 °F -14.8 °F 47% 29.80 in 10.0 mi WSW 12.7 mph 19.6 mph N/A   Scattered Clouds
11:55 AM 1.4 °F -18.8 °F -13.0 °F 51% 29.78 in 10.0 mi SW 17.3 mph 24.2 mph N/A   Overcast
12:15 PM 1.4 °F -18.2 °F -11.2 °F 56% 29.76 in 10.0 mi SW 16.1 mph 28.8 mph N/A   Overcast
12:35 PM 1.4 °F -16.9 °F -14.8 °F 47% 29.74 in 10.0 mi WSW 13.8 mph 27.6 mph N/A   Overcast
12:55 PM 3.2 °F -13.1 °F -11.2 °F 51% 29.71 in 10.0 mi WSW 11.5 mph 21.9 mph N/A   Mostly Cloudy
1:15 PM 3.2 °F -14.6 °F -11.2 °F 51% 29.68 in 10.0 mi WSW 13.8 mph 28.8 mph N/A   Mostly Cloudy
1:35 PM 5.0 °F -15.7 °F -11.2 °F 47% 29.65 in 10.0 mi WSW 20.7 mph 28.8 mph N/A   Mostly Cloudy
1:55 PM 5.0 °F -14.2 °F -11.2 °F 47% 29.60 in 10.0 mi WSW 17.3 mph 33.4 mph N/A   Mostly Cloudy
2:15 PM 6.8 °F -13.4 °F -9.4 °F 48% 29.57 in 10.0 mi SW 20.7 mph 29.9 mph N/A   Mostly Cloudy
2:35 PM 8.6 °F -9.5 °F -9.4 °F 44% 29.57 in 10.0 mi WSW 17.3 mph 27.6 mph N/A   Mostly Cloudy
2:55 PM 8.6 °F -7.0 °F -9.4 °F 44% 29.58 in 10.0 mi West 12.7 mph 24.2 mph N/A   Overcast
3:15 PM 10.4 °F -8.6 °F -9.4 °F 41% 29.56 in 10.0 mi WSW 20.7 mph 31.1 mph N/A   Mostly Cloudy
3:35 PM 10.4 °F -4.8 °F -9.4 °F 41% 29.54 in 10.0 mi WSW 12.7 mph 26.5 mph N/A   Scattered Clouds
3:55 PM 10.4 °F -6.0 °F -11.2 °F 37% 29.52 in 10.0 mi WSW 15.0 mph 28.8 mph N/A   Partly Cloudy
4:15 PM 10.4 °F -4.8 °F -9.4 °F 41% 29.51 in 10.0 mi WSW 12.7 mph 21.9 mph N/A   Scattered Clouds
4:35 PM 10.4 °F -5.4 °F -9.4 °F 41% 29.52 in 10.0 mi West 13.8 mph 23.0 mph N/A   Partly Cloudy
4:55 PM 10.4 °F -5.4 °F -9.4 °F 41% 29.51 in 10.0 mi WSW 13.8 mph 25.3 mph N/A   Mostly Cloudy
5:15 PM 10.4 °F -5.4 °F -9.4 °F 41% 29.51 in 10.0 mi WSW 13.8 mph 20.7 mph N/A   Overcast
5:35 PM 10.4 °F -4.8 °F -7.6 °F 44% 29.51 in 10.0 mi West 12.7 mph 16.1 mph N/A   Overcast
5:55 PM 10.4 °F -5.4 °F -5.8 °F 48% 29.51 in 10.0 mi West 13.8 mph 18.4 mph N/A   Overcast
6:15 PM 10.4 °F -1.5 °F -4.0 °F 52% 29.51 in 10.0 mi West 8.1 mph 18.4 mph N/A   Mostly Cloudy
6:35 PM 10.4 °F -0.4 °F -4.0 °F 52% 29.51 in 10.0 mi West 6.9 mph - N/A   Partly Cloudy
6:55 PM 10.4 °F -0.4 °F -2.2 °F 57% 29.51 in 10.0 mi West 6.9 mph 17.3 mph N/A   Clear
7:15 PM 10.4 °F -3.3 °F -2.2 °F 57% 29.51 in 10.0 mi West 10.4 mph 19.6 mph N/A   Clear
7:35 PM 8.6 °F -1.3 °F -2.2 °F 62% 29.50 in 10.0 mi WSW 5.8 mph - N/A   Clear
7:55 PM 8.6 °F 0.1 °F -4.0 °F 57% 29.50 in 10.0 mi West 4.6 mph - N/A   Clear
8:15 PM 8.6 °F 0.1 °F -0.4 °F 67% 29.49 in 10.0 mi West 4.6 mph - N/A   Clear
8:35 PM 8.6 °F -1.3 °F -2.2 °F 62% 29.49 in 10.0 mi WSW 5.8 mph - N/A   Clear
8:55 PM 6.8 °F -3.5 °F -2.2 °F 67% 29.48 in 10.0 mi WSW 5.8 mph - N/A   Clear
9:15 PM 6.8 °F -3.5 °F -0.4 °F 72% 29.48 in 10.0 mi WSW 5.8 mph - N/A   Partly Cloudy
9:35 PM 6.8 °F -4.8 °F -0.4 °F 72% 29.48 in 10.0 mi WSW 6.9 mph - N/A   Clear
9:55 PM 5.0 °F -5.6 °F -0.4 °F 78% 29.48 in 10.0 mi West 5.8 mph - N/A   Clear
10:15 PM 5.0 °F -4.1 °F -0.4 °F 78% 29.49 in 10.0 mi West 4.6 mph - N/A   Clear
10:35 PM 5.0 °F -4.1 °F 1.4 °F 85% 29.50 in 10.0 mi NW 4.6 mph - N/A   Scattered Clouds
10:55 PM 6.8 °F -3.5 °F 1.4 °F 79% 29.51 in 10.0 mi NW 5.8 mph - N/A   Partly Cloudy
11:15 PM 5.0 °F -2.1 °F 1.4 °F 85% 29.51 in 10.0 mi NW 3.5 mph - N/A   Clear
11:35 PM 5.0 °F -2.1 °F -0.4 °F 78% 29.52 in 10.0 mi NW 3.5 mph - N/A   Scattered Clouds
11:55 PM 5.0 °F -4.1 °F 1.4 °F 85% 29.53 in 10.0 mi NW 4.6 mph - N/A   Partly Cloudy